Regional Weather Roundup
Issued by NWS Sioux Falls, SD

Home | Current Version | Previous Version | Text Only | Print | Product List | Glossary On
Versions: 1 2 3 4 5 6 7 8 9 10 11 12 13 14 15 16 17 18 19 20 21 22 23 24 25 26 27 28 29 30 31 32 33 34 35 36 37 38 39 40 41 42 43 44 45 46 47 48 49 50
000
ASUS43 KFSD 221110
RWRFSD

WEATHER ROUNDUP FOR SE SOUTH DAKOTA/SW MINNESOTA/NW IOWA
NATIONAL WEATHER SERVICE SIOUX FALLS SD
500 AM CST MON DEC 22 2014

NOTE: "FAIR" INDICATES FEW OR NO CLOUDS BELOW 12,000 FEET WITH NO
SIGNIFICANT WEATHER AND OR OBSTRUCTIONS TO VISIBILITY.


SDZ038>040-050-052>070-221200-
SOUTHEAST SOUTH DAKOTA

CITY           SKY/WX    TMP DP  RH WIND       PRES   REMARKS
CHAMBERLAIN    LGT RAIN  32  31  98 W6        29.44F WCI  26
HURON          CLOUDY    35  34  96 S6        29.44S FOG
MADISON        LGT RAIN  36  36 100 S9        29.45F
MITCHELL       LGT RAIN  37  37 100 S7        29.45S
SIOUX FALLS    LGT RAIN  40  39  97 S10       29.47F FOG
WINNER         CLOUDY    39  36  89 W17       29.46S
YANKTON        CLOUDY    41  39  93 S8        29.47F
$$

MNZ071-072-080-081-089-090-097-098-221200-
SOUTHWEST MINNESOTA

CITY           SKY/WX    TMP DP  RH WIND       PRES   REMARKS
FAIRMONT       CLOUDY    39  36  87 SE17      29.59F
JACKSON        CLOUDY    39  37  93 S15       29.57F FOG
LUVERNE        LGT RAIN  39  37  93 S10       29.51S
MARSHALL       CLOUDY    39  36  87 S13       29.52S
MONTEVIDEO     CLOUDY    37  37 100 S10       29.54S FOG
PIPESTONE      RAIN      37  37 100 S8        29.48F
REDWOOD FALLS  CLOUDY    39  38  96 SE16      29.56F FOG
TRACY          RAIN      39  38  97 S14       29.52F
WINDOM         LGT RAIN  39  39 100 SE14G20   29.55F
WORTHINGTON    CLOUDY    39 -11  11 S12       29.53F
$$

IAZ001>003-012>014-020>022-031-032-NEZ013-014-SDZ071-221200-
NORTHWEST IOWA

CITY           SKY/WX    TMP DP  RH WIND       PRES   REMARKS
CHEROKEE       DRIZZLE   40  40 100 S12       29.55S
DENISON        MIX PCPN  41  41 100 S15G22    29.55F
ESTHERVILLE    CLOUDY    38  38 100 S21G28    29.57F FOG
LE MARS        MIX PCPN  43  41  93 S14       29.52F
ORANGE CITY    DRIZZLE   43  39  87 S9        29.51F
SHELDON        CLOUDY    39  39 100 S14       29.52S FOG
SIOUX CITY     LGT RAIN  43  41  93 SE10      29.52F FOG
SPENCER        CLOUDY    40  38  93 SE16      29.56F FOG
STORM LAKE     MIX PCPN  39  39 100 S17       29.56F VSB 1
$$

ABBREVIATIONS USED IN REMARKS
   TC - TEMPERATURE IN CELSIUS
  WCI - WIND CHILL INDEX
   HX - HEAT INDEX
  VSB - VISIBILITY



USA.gov is the U.S. government's official web portal to all federal, state and local government web resources and services.